SCP
1 1 1 1 1 1 1 1 1 1 1 1 1 2 1 1 1 1 1 2 2 2 1 1 1 1 1 1 2 2 3 4 5 5 4 3 3 2 2 2 2 2 2
1 1 1 1 1 1 1 1 1 1 1 1 1 1 1 1 1 1 1 2 2 1 1 1 1 1 1 1 1 2 2 4 5 5 4 4 3 3 2 2 2 2 2
1 1 1 1 1 1 1 1 1 1 0 0 0 1 1 1 1 1 2 2 2 1 1 1 2 2 1 1 1 1 1 2 4 4 5 5 5 4 4 3 3 3 2
1 1 1 2 2 1 1 1 1 0 0 0 0 0 1 2 2 2 2 2 2 1 1 1 1 1 1 1 1 1 1 1 2 3 4 5 5 5 5 5 5 4 4
1 1 2 2 2 1 1 1 1 0 0 0 0 0 1 1 2 2 2 2 2 1 1 1 1 1 1 1 1 1 1 1 1 2 3 4 5 6 5 5 5 5 5
1 1 2 2 1 1 1 1 1 1 0 0 0 0 0 1 1 2 2 2 2 1 1 1 1 2 2 1 1 2 1 1 1 2 2 3 5 6 5 5 6 6 6
1 2 2 2 1 1 1 1 1 1 0 0 0 0 0 1 1 1 1 1 1 1 2 2 2 2 2 2 2 2 2 1 1 2 2 3 5 6 6 6 6 7 7
2 2 2 2 1 1 1 1 1 1 0 0 0 0 0 0 0 0 0 1 1 2 2 2 2 2 1 1 2 2 2 1 1 2 2 2 4 5 6 6 6 7 7
2 2 2 1 2 1 1 1 1 1 0 0 0 0 0 0 0 0 1 1 2 2 2 2 1 1 1 1 1 1 2 2 1 2 2 2 2 3 4 4 5 6 6
1 1 1 1 1 1 1 1 1 1 0 0 0 0 0 0 0 1 1 2 2 1 1 1 1 1 1 1 1 1 1 2 2 2 2 2 2 2 2 2 3 4 4
1 1 1 1 1 1 1 1 0 0 0 0 0 0 0 0 0 1 1 1 1 1 0 0 0 1 1 1 1 1 1 1 1 2 2 2 2 2 1 1 1 2 2
1 1 1 1 1 1 0 0 0 0 0 0 0 0 0 0 0 1 1 1 0 0 0 0 0 1 1 1 1 1 1 1 1 1 2 2 2 2 2 1 1 1 1
1 1 0 0 0 0 0 0 0 0 0 0 0 0 0 0 0 0 0 0 0 0 0 0 0 1 1 1 1 1 1 1 1 1 1 1 2 2 2 1 1 1 1
1 1 0 0 0 0 0 0 0 0 0 0 0 0 0 0 0 0 0 0 0 0 0 0 0 0 0 0 0 0 0 0 0 0 1 1 1 1 1 1 1 1 1
1 0 0 0 0 0 0 0 0 0 0 0 0 0 0 0 0 0 0 0 0 0 0 0 0 0 0 0 0 0 0 0 0 0 0 0 0 0 1 1 0 0 1
1 1 0 0 1 1 0 0 0 0 0 0 0 0 0 0 0 0 0 0 0 0 0 0 0 0 0 0 0 0 0 0 0 0 0 0 0 0 0 0 0 0 0
1 1 1 1 1 1 1 0 0 0 0 0 0 0 0 0 0 0 0 0 0 0 0 0 0 0 0 0 0 0 0 0 0 0 0 0 0 0 1 0 0 0 0
1 1 1 1 1 1 1 0 0 0 0 0 0 0 0 0 0 0 0 0 0 0 0 0 0 0 0 0 0 0 0 0 0 0 0 0 0 0 1 0 0 0 0
1 1 1 1 1 1 1 0 0 0 0 0 0 0 0 0 0 0 0 0 0 0 0 0 0 0 0 0 0 0 0 0 0 0 0 0 0 0 0 0 0 0 0
1 1 1 1 1 1 1 0 0 0 0 0 0 0 0 0 0 0 0 0 0 0 0 0 0 0 0 0 0 0 0 0 0 0 0 0 0 0 0 0 0 0 0
1 1 1 1 1 1 1 0 0 0 0 0 0 0 0 0 0 0 0 0 0 0 0 0 0 0 0 0 0 0 0 0 0 0 0 0 0 0 0 0 0 0 0
0 0 1 1 1 0 0 0 0 0 0 0 0 0 0 0 0 0 0 0 0 0 0 0 0 0 0 0 0 0 0 0 0 0 0 0 0 0 0 0 0 0 0
0 0 0 1 0 0 0 0 0 0 0 0 0 0 0 0 0 0 0 0 0 0 0 0 0 0 0 0 0 0 0 0 0 0 0 0 0 0 0 0 0 0 0
0 0 0 0 0 0 0 0 0 0 0 0 0 0 0 0 0 0 0 0 0 0 0 0 0 0 0 0 0 0 0 0 0 0 0 0 0 0 0 0 0 0 0
1 0 0 0 0 0 0 0 0 0 0 0 0 0 0 0 0 0 0 0 0 0 0 0 0 0 0 0 0 0 0 0 0 0 0 0 0 0 0 0 0 0 0
1 0 0 0 0 0 0 0 0 0 0 0 0 0 0 0 0 0 0 0 0 0 0 0 0 0 0 0 0 0 0 0 0 0 0 0 0 0 0 0 0 0 0
Wind_Speed
2 2 1 1 1 1 1 1 1 1 1 1 2 3 3 3 4 3 3 8 9 10 10 11 10 9 9 8 8 8 8 8 8 8 8 8 7 7 8 8 7 8 8
2 2 2 1 1 1 1 1 2 2 1 1 2 2 3 3 4 4 3 5 9 9 9 9 9 9 9 8 8 8 8 8 8 8 8 8 8 8 8 8 8 7 8
3 3 2 1 1 1 1 1 1 1 1 1 1 1 2 3 3 4 4 3 4 8 8 8 9 9 8 8 8 8 8 8 8 9 9 8 8 8 8 9 8 8 8
4 3 2 2 1 1 1 1 1 1 1 1 1 0 1 2 3 4 3 3 3 4 6 9 9 8 8 8 8 8 8 8 9 9 9 9 9 8 8 8 9 9 9
4 3 2 2 2 2 1 1 1 1 1 1 1 1 1 1 2 3 3 4 4 3 4 6 8 8 9 9 8 8 8 8 8 8 9 9 9 8 8 7 8 9 10
3 3 2 2 2 2 2 1 1 1 1 1 0 0 1 1 2 3 3 3 3 4 4 4 3 5 8 8 7 7 8 8 8 8 8 8 8 8 8 8 8 8 9
3 3 2 2 2 2 2 2 1 1 1 1 2 2 2 2 1 2 2 2 3 3 4 4 3 2 3 7 7 7 7 8 8 8 8 8 8 8 8 8 8 8 9
3 3 3 2 2 2 2 2 2 1 0 1 2 2 2 3 2 1 1 2 2 2 3 4 4 4 3 2 5 8 8 7 8 8 8 8 8 9 9 9 9 9 8
3 3 3 3 2 2 2 1 2 3 1 0 1 3 3 2 2 2 1 1 1 1 2 2 4 4 4 3 3 7 8 8 8 8 8 8 8 9 9 9 9 9 9
2 3 3 3 3 2 2 2 2 2 3 1 0 1 2 3 2 1 2 1 1 1 2 2 3 3 3 3 4 7 8 7 8 8 8 8 8 9 10 10 10 9 9
2 3 3 3 3 2 2 2 2 2 2 2 2 1 1 1 1 2 1 1 2 1 1 2 2 2 3 3 3 6 8 8 8 8 8 8 8 8 9 10 10 9 9
1 1 2 2 2 2 3 3 3 3 2 2 2 2 2 2 2 2 2 1 1 2 2 1 2 2 3 3 5 7 7 8 8 8 8 8 8 8 9 9 10 10 10
2 3 2 2 2 2 3 2 2 3 3 3 3 2 2 2 2 3 2 1 1 2 2 1 2 2 3 2 3 7 7 8 8 8 8 8 8 9 9 9 10 10 10
3 4 3 3 3 3 3 3 2 2 2 3 3 3 2 2 2 3 3 3 0 2 2 3 2 2 2 2 5 7 5 8 8 8 7 8 8 8 8 8 9 9 9
3 4 4 4 3 3 3 3 2 2 2 3 3 3 2 2 2 2 3 3 3 2 3 3 2 2 2 3 5 4 4 7 8 8 7 7 7 7 7 7 8 8 8
3 4 4 4 4 4 3 3 2 3 3 2 2 3 2 2 2 2 2 2 3 3 3 3 3 3 2 3 4 3 4 7 8 8 7 7 7 7 7 7 8 8 9
4 4 4 4 4 4 4 4 3 4 4 3 3 3 3 3 2 2 2 2 2 3 3 3 2 2 2 2 3 2 3 3 4 8 8 8 7 7 7 7 7 8 8
3 4 4 4 4 4 4 4 4 4 4 4 4 3 3 3 3 2 2 2 2 3 3 3 2 2 3 3 2 3 3 3 3 6 8 8 8 8 7 7 7 7 7
3 3 3 4 4 4 4 4 5 4 5 5 5 5 4 4 3 2 3 2 2 2 2 3 3 2 2 2 1 2 2 2 3 4 6 7 8 8 8 8 7 7 8
3 3 3 4 4 4 4 4 4 4 4 4 4 5 5 5 4 4 3 3 2 2 2 2 2 2 2 2 1 1 2 2 3 3 3 4 5 6 7 7 8 8 8
3 3 3 3 3 3 4 4 4 5 4 4 4 4 5 6 6 5 4 4 3 2 2 2 2 2 2 2 2 2 2 2 3 2 1 2 2 2 3 5 7 8 8
2 2 3 3 3 3 4 6 5 4 4 4 4 4 4 5 6 7 7 7 7 5 4 3 3 3 4 3 2 2 2 1 2 2 1 2 2 3 3 3 6 8 8
3 3 3 3 3 3 4 5 6 4 4 4 4 4 3 3 4 3 4 5 6 8 8 6 5 6 5 4 3 3 3 3 4 3 2 2 2 3 3 4 7 8 8
3 3 3 3 3 3 4 4 5 4 3 4 4 5 4 4 4 4 3 3 4 5 7 6 6 7 6 5 5 5 4 3 2 2 3 2 2 3 3 2 5 7 8
2 2 2 3 3 3 4 4 5 3 2 3 3 3 4 4 6 5 3 3 4 4 5 7 8 7 8 8 5 2 2 2 2 2 2 2 2 2 2 2 3 5 7
3 2 2 2 3 3 3 4 6 3 3 2 2 2 4 5 6 6 4 4 4 5 3 3 3 4 5 6 6 6 5 4 2 2 3 3 2 1 1 2 1 2 3
Wind_Direction
143 142 150 160 167 158 168 176 180 177 170 152 155 144 147 155 150 159 171 182 184 182 182 185 188 190 188 185 186 190 194 192 191 188 184 182 186 190 191 193 196 195 195
144 142 141 150 155 172 175 167 162 163 157 137 137 140 154 161 160 163 169 185 189 187 186 190 196 196 194 195 196 198 197 197 195 193 192 190 192 197 199 201 202 202 201
147 144 134 137 166 152 140 128 117 113 124 113 115 141 163 171 173 178 178 182 187 189 189 195 194 193 194 200 204 205 205 202 199 198 198 196 197 202 205 208 210 209 207
148 137 136 150 152 122 122 122 105 98 94 108 136 211 171 180 183 186 186 186 185 189 198 202 194 193 201 207 209 213 212 211 207 205 205 203 203 204 207 211 215 216 213
151 140 141 151 139 117 106 126 106 130 134 143 194 223 240 200 199 192 190 191 192 187 190 198 195 197 203 209 211 214 217 217 213 209 208 208 208 209 210 213 217 220 218
142 130 131 140 128 109 96 92 95 96 132 164 198 327 281 238 203 192 191 183 189 186 182 188 192 205 209 208 212 219 221 219 215 213 215 217 215 213 214 216 218 220 218
135 127 132 132 120 126 140 135 117 93 47 96 75 10 342 334 240 197 184 174 187 184 175 186 196 202 213 214 212 213 215 218 217 218 221 223 220 216 217 218 218 219 218
153 147 141 143 137 128 125 123 118 108 20 105 124 97 9 346 338 299 189 185 190 173 178 191 194 198 206 204 209 212 214 218 222 227 229 229 224 220 219 222 222 221 220
156 148 147 145 144 140 148 162 145 146 169 293 134 141 146 217 306 330 313 193 175 174 197 193 197 198 198 200 205 215 212 213 221 229 234 233 229 226 225 227 227 226 226
157 153 145 141 146 148 159 186 170 166 155 173 91 132 158 161 153 297 320 306 230 203 216 216 209 204 197 194 200 204 206 207 221 230 235 234 233 230 229 229 228 227 230
166 162 153 149 155 159 169 179 176 169 160 166 168 158 114 99 128 153 233 309 327 283 236 220 210 205 201 192 198 208 211 213 219 228 233 237 238 237 236 233 230 226 230
165 176 171 165 170 171 182 189 183 170 168 163 166 159 156 150 175 162 180 223 268 285 282 246 221 215 210 199 210 213 215 217 219 227 234 237 238 237 240 240 237 233 233
194 206 191 183 184 190 191 185 180 178 170 167 176 177 173 179 172 163 156 188 256 295 309 292 246 224 221 204 218 222 219 219 222 227 231 237 240 239 239 241 242 239 237
201 198 192 195 198 191 188 176 172 186 174 180 187 181 176 196 177 167 163 156 161 313 310 280 287 240 226 214 221 222 224 224 226 228 233 240 242 239 239 236 236 237 237
196 189 191 194 198 191 184 172 178 191 180 190 195 192 188 196 179 177 164 159 161 204 269 265 268 267 240 225 224 215 218 227 228 228 231 233 236 235 235 234 232 231 233
191 185 194 195 196 191 187 183 186 190 180 194 189 184 190 197 183 183 183 178 166 175 234 255 245 256 261 260 240 225 224 229 232 230 229 229 234 233 235 234 232 230 228
192 195 200 197 196 195 191 185 194 187 186 196 194 185 196 190 187 202 187 177 183 171 207 267 255 264 264 266 276 253 237 225 231 230 228 227 229 233 235 238 233 229 225
199 202 199 193 196 196 190 186 199 196 190 194 200 191 199 195 197 201 188 200 205 195 185 238 268 267 261 254 248 250 246 230 231 235 230 226 228 235 237 235 230 227 222
193 199 192 195 202 199 193 195 198 199 195 198 196 193 198 183 201 206 198 202 206 209 193 206 251 255 264 272 282 278 269 263 246 237 230 231 231 234 237 233 231 228 221
186 193 198 206 209 201 196 198 196 195 194 201 199 198 198 189 196 201 203 202 198 201 203 214 249 263 265 271 241 257 288 287 270 256 241 235 235 238 239 236 231 227 222
192 193 195 213 217 201 199 192 194 189 186 195 206 209 206 204 204 204 203 200 191 195 207 223 244 259 263 259 243 233 249 279 274 241 243 250 234 239 242 237 231 224 222
204 198 202 205 218 222 210 198 190 187 186 192 205 215 219 218 220 223 222 213 198 195 205 217 231 235 249 241 231 224 216 238 273 256 197 256 212 231 236 230 229 222 222
205 209 215 203 216 232 209 192 186 177 186 195 200 203 218 218 218 219 235 239 235 231 219 207 218 233 234 229 213 225 222 216 231 232 175 246 231 234 239 238 225 217 216
205 210 216 215 216 229 212 196 187 176 182 199 204 202 206 221 220 210 221 245 251 249 238 225 221 229 230 222 207 211 213 226 259 248 174 216 237 233 237 234 228 216 214
216 215 207 207 213 233 221 203 182 166 182 212 218 210 206 212 221 210 204 231 259 269 259 239 231 233 233 233 218 187 188 179 249 257 199 194 224 227 231 235 234 216 210
211 210 212 210 206 223 227 210 186 171 184 214 238 237 228 221 223 214 205 208 232 253 255 267 269 265 252 245 228 200 190 188 200 238 218 185 205 182 253 254 226 212 205